STARLINK-30201, 57301

Orbit data source: Space-Track

STARLINK-30201, 57301 is a payload satellite owned by SpaceX/Seattle (US) in LEO that was launched on Mon, 10 Jul 2023 UTC via an FALCON 9 launch vehicle from the Air Force Eastern Test Range (AFETR). Payload-class satellites include a variety of spacecraft equipped with specific instruments for various scientific and technological missions. These include communications satellites like Starlink; space stations such as the ISS; scientific satellites like the Hubble; Earth observation satellites from companies like Planet Labs, Umbra, and HawkEye 360; GPS; miniature CubeSats for education and research; and military/defense satellites.

Loading next visibility...
Identifier
57301, 2023-096M
Orbit
LEO
Country
Flag of USUS
Related business
Manufacturer
SpaceX/Seattle
Mission
Operational Commercial Communications
Bus & Motor
STARLINK V2M, Unknown motor
Mass
730 kg wet, ~700 kg dry
Launch date (UTC)
2023-07-10 (3 years ago)
Launch vehicle
FALCON 9
Launch site
Air Force Eastern Test Range (AFETR)
Object type
Payload
Rocket body
Debris
Shape & HBR
Box + 2 Pan, 17.7 m
Radar Cross Section
33.884 m², Large (>1 m²)

Expand to show TLE details & history
Last TLE update: 9 hours ago

TLE from 9 hours ago
0 STARLINK-30201
1 57301U 23096M   26227.82976062  .00001921  00000-0  79317-4 0  9999
2 57301  43.0030  44.6181 0001364 272.0560  88.0136 15.27579641171055
Epoch: 2026-08-15T19:54Z
TLE epoch observation values (Epoch: 2026-08-15T19:54:51.317Z)
Latitude
0.00001°
Longitude
141.66928°
Altitude
482.794 km
Speed
7.626 km/s
True Right ascension
02h 58m 28s
True Declination
0° 00' 00"
Sunlit
Object was in daylight at epoch
Visualization orbit readout
Latitude
Unknown
Longitude
Unknown
Altitude
Unknown
Speed
Unknown
Apparent Right ascension
Unknown
Apparent Declination
Unknown
Sunlit
N/A
Visualization observer readout
Local Sidereal Time
19:29:27
Azimuth
Unknown
Elevation
Unknown
Doppler factor
Unknown
Orbital elements
Apogee altitude
485.931 km
Perigee altitude
484.059 km
Semi-major axis
6,863.132 km
Eccentricity
0.00014
Inclination
43.003°
RAAN
44.6181°
Arg. of periapsis
272.056°
True anomaly
88.02922°
Mean anomaly
88.0136°
Eccentric anomaly
88.02141°
Mean motion
3.81733 °/min
Orbital period
94.31 mins
BSTAR
0.000079317
Loading maneuver chart data...
Computing Atmospheric mass density...

Documentation

Showing up to 5 results
|